Hourly Data Report for October 15, 2017

All times are specified in Local Standard Time (LST). Add 1 hour to adjust for Daylight Saving Time where and when it is observed.

CLYDE RIVER A
NUNAVUT

70°29'09.000" N
68°31'01.000" W
26.50 m
2400804
71090
YCY

Download Data

Hourly Data (October 2017)
Hourly Data Report for October 15, 2017
Temp Definition
°C
Dew Point Temp Definition
°C
Rel Hum Definition
%
Wind Dir Definition
10's deg

Wind Spd Definition
km/h
Visibility Definition
km
Stn Press Definition
kPa
Hmdx Definition


Wind Chill Definition


Weather Definition


TIME
00:00 Legend Double Dagger -5.0 -7.6 82 4 5 16.1 100.09   -7 LegendNANA
01:00 Legend Double Dagger -4.9 -7.9 80 6 9 16.1 100.09   -9 LegendNANA
02:00 Legend Double Dagger -4.2 -8.2 74 4 9 16.1 100.09   -8 LegendNANA
03:00 Legend Double Dagger -4.7 -8.0 78 6 8 16.1 100.11   -8 Snow
04:00 Legend Double Dagger -4.3 -8.8 71 9 5 16.1 100.13   -6 LegendNANA
05:00 Legend Double Dagger -4.4 -8.5 74 7 9 16.1 100.13   -8 Snow
06:00 Legend Double Dagger -5.0 -8.1 79 5 9 16.1 100.16   -9 Snow
07:00 Legend Double Dagger -4.5 -8.7 73 4 8 16.1 100.18   -8 Snow
08:00 Legend Double Dagger -4.8 -9.1 72 1 5 16.1 100.19   -7 LegendNANA
09:00 Legend Double Dagger -5.0 -8.3 78 31 13 16.1 100.19   -10 Snow
10:00 Legend Double Dagger -5.1 -7.9 81 31 15 16.1 100.18   -11 Snow
11:00 Legend Double Dagger -5.2 -8.0 81 30 13 16.1 100.18   -10 Snow
12:00 Legend Double Dagger -5.0 -7.7 81 31 15 16.1 100.19   -11 Snow
13:00 Legend Double Dagger -5.2 -7.7 83 30 17 16.1 100.20   -11 Snow
14:00 Legend Double Dagger -5.4 -7.9 83 30 17 16.1 100.24   -11 Snow
15:00 Legend Double Dagger -5.3 -7.9 82 30 18 16.1 100.25   -12 Snow
16:00 Legend Double Dagger -5.5 -7.8 84 30 18 16.1 100.27   -12 Snow
17:00 Legend Double Dagger -5.5 -7.5 86 30 18 16.1 100.28   -12 Snow
18:00 Legend Double Dagger -5.3 -7.1 87 31 17 16.1 100.29   -11 Snow
19:00 Legend Double Dagger -5.4 -7.2 87 30 15 16.1 100.31   -11 Snow
20:00 Legend Double Dagger -5.4 -7.2 87 31 17 16.1 100.29   -11 Snow
21:00 Legend Double Dagger -5.1 -6.8 88 30 15 2.4 100.27   -11 Snow
22:00 Legend Double Dagger -5.5 -6.9 90 29 15 16.1 100.26   -11 Snow
23:00 Legend Double Dagger -5.7 -6.9 91 29 15 16.1 100.25   -11 Snow

Notes on Data Quality.

Legend

  • E = Estimated
  • M = Missing
  • NA = Not Available
  • ‡ = Partner data that is not subject to review by the National Climate Archives
Date modified: